VE3KCY Weather Reports


time (UTC)temp
C
wind
direction
speed
KPH
gust
KPH
rain 1hr
cm
rain 24hr
cm
rain mn
cm
humidity
%
barometer
mb
20260510180018 10 311 3.2 12.9 0.00 0.43 0.00 47 1016.3
20260510174524 11 354 3.2 14.5 0.00 0.43 0.00 47 1016.3
20260510173027 10 330 3.2 12.9 0.00 0.43 0.00 49 1016.2
20260510171512 10 359 3.2 11.3 0.00 0.43 0.00 52 1016.1
20260510170017 10 307 3.2 14.5 0.00 0.43 0.00 52 1016.0
20260510164534 9 75 3.2 19.3 0.00 0.43 0.00 50 1016.0
20260510163024 10 336 3.2 12.9 0.00 0.43 0.00 49 1015.8
20260510161525 10 299 3.2 16.1 0.00 0.43 0.00 50 1015.8
20260510160016 10 6 1.6 14.5 0.00 0.43 0.00 49 1015.8
20260510154540 10 347 3.2 12.9 0.00 0.43 0.00 49 1015.8
20260510153026 10 356 8.0 19.3 0.00 0.43 0.00 49 1015.7
20260510151525 8 265 3.2 20.9 0.00 0.43 0.00 49 1015.4
20260510150013 9 329 4.8 11.3 0.00 0.43 0.00 53 1015.2
20260510144523 9 309 3.2 14.5 0.00 0.43 0.00 54 1015.0
20260510143003 8 298 3.2 11.3 0.00 0.43 0.00 52 1014.8
20260510141507 8 349 1.6 14.5 0.00 0.43 0.00 55 1014.6
20260510140011 7 303 3.2 14.5 0.00 0.43 0.00 57 1014.4
20260510134516 7 309 1.6 14.5 0.00 0.43 0.00 60 1014.4
20260510133003 6 305 3.2 16.1 0.00 0.43 0.00 64 1014.2
20260510131506 5 319 1.6 14.5 0.00 0.43 0.00 67 1014.0
20260510130008 5 323 3.2 11.3 0.00 0.43 0.00 67 1013.8
20260510124514 4 230 3.2 11.3 0.00 0.43 0.00 69 1013.8
20260510123016 3 270 1.6 14.5 0.00 0.43 0.00 72 1013.6
20260510121521 3 245 1.6 6.4 0.00 0.43 0.00 74 1013.5
20260510120003 2 301 3.2 11.3 0.00 0.43 0.00 75 1013.3
20260510114511 2 263 3.2 9.7 0.00 0.43 0.00 78 1013.3
20260510113018 1 278 1.6 12.9 0.00 0.43 0.00 79 1012.9
20260510111519 1 301 0.0 8.0 0.00 0.43 0.00 81 1012.7
20260510110022 1 287 1.6 9.7 0.00 0.43 0.00 81 1012.3
20260510104508 1 270 0.0 6.4 0.00 0.43 0.00 82 1012.2
20260510103011 1 284 1.6 8.0 0.00 0.43 0.00 82 1011.9
20260510101520 1 288 0.0 6.4 0.00 0.43 0.00 81 1011.6
20260510100023 1 283 0.0 4.8 0.00 0.43 0.00 81 1011.2
20260510094526 1 337 1.6 8.0 0.00 0.43 0.00 82 1010.9
20260510093009 1 343 0.0 3.2 0.00 0.43 0.00 82 1010.4
20260510091523 1 277 0.0 4.8 0.00 0.43 0.00 82 1010.2
20260510090024 1 320 0.0 4.8 0.00 0.43 0.00 82 1010.0
20260510084524 1 327 0.0 4.8 0.00 0.43 0.00 82 1009.8
20260510083025 1 311 0.0 4.8 0.00 0.43 0.00 82 1009.8
20260510081512 1 347 0.0 6.4 0.00 0.43 0.00 82 1009.7
20260510080018 1 296 0.0 6.4 0.00 0.43 0.00 81 1009.6
20260510074522 1 320 0.0 6.4 0.00 0.43 0.00 80 1009.5
20260510073029 1 347 0.0 6.4 0.00 0.43 0.00 80 1009.4
20260510071528 2 289 0.0 4.8 0.00 0.43 0.00 79 1009.4
20260510070015 2 353 1.6 8.0 0.00 0.43 0.00 78 1009.3
20260510064538 2 8 0.0 6.4 0.00 0.43 0.00 77 1009.3
20260510063027 2 297 1.6 8.0 0.00 0.43 0.00 76 1009.2
20260510061524 3 324 1.6 11.3 0.00 0.43 0.00 75 1009.3
20260510060026 3 357 1.6 9.7 0.00 0.43 0.00 75 1009.3
20260510054518 3 292 0.0 11.3 0.00 0.43 0.00 73 1009.1
20260510053038 3 359 3.2 8.0 0.00 0.43 0.00 73 1008.8
20260510051537 4 310 0.0 8.0 0.00 0.43 0.00 72 1008.5
20260510050026 5 326 1.6 8.0 0.00 0.43 0.00 71 1008.5
20260510044528 5 224 3.2 8.0 0.00 0.43 0.00 71 1008.2
20260510043020 5 302 1.6 4.8 0.00 0.43 0.00 71 1008.2
20260510041527 5 299 1.6 3.2 0.00 0.43 0.00 71 1008.1
20260510040028 5 310 0.0 3.2 0.00 0.43 0.00 70 1007.8
20260510034508 6 342 0.0 4.8 0.00 0.43 0.43 70 1007.4
20260510033007 6 265 1.6 4.8 0.00 0.43 0.43 70 1007.3
20260510031505 6 335 0.0 3.2 0.00 0.43 0.43 70 1007.3
20260510030004 6 317 0.0 3.2 0.00 0.43 0.43 74 1007.1
20260510024507 6 303 0.0 3.2 0.00 0.43 0.43 73 1007.0
20260510023009 7 347 0.0 3.2 0.00 0.43 0.43 70 1006.8
20260510021508 7 62 1.6 6.4 0.00 0.43 0.43 72 1006.6
20260510020009 7 4 0.0 4.8 0.00 0.43 0.43 69 1006.4
20260510014509 8 347 1.6 9.7 0.00 0.43 0.43 67 1006.0
20260510013012 8 350 3.2 12.9 0.00 0.43 0.43 69 1006.1
20260510011514 8 23 1.6 11.3 0.00 0.43 0.43 73 1005.5
20260510010014 9 243 3.2 9.7 0.00 0.43 0.43 74 1004.8
20260510004512 10 316 6.4 9.7 0.00 0.43 0.43 71 1004.3
20260510003010 10 279 0.0 8.0 0.00 0.43 0.43 74 1003.8
20260510001512 11 281 1.6 8.0 0.00 0.43 0.43 75 1003.6
20260510000012 11 264 0.0 6.4 0.00 0.43 0.43 74 1003.4
20260509234516 11 239 1.6 11.3 0.00 0.43 0.43 74 1003.3
20260509233019 11 259 3.2 8.0 0.00 0.43 0.43 74 1002.9
20260509231508 12 311 0.0 11.3 0.00 0.43 0.43 76 1002.7
20260509230014 12 260 4.8 12.9 0.00 0.43 0.43 82 1002.6
20260509224515 12 271 4.8 14.5 0.00 0.43 0.43 82 1002.3
20260509223018 12 285 1.6 11.3 0.00 0.43 0.43 81 1002.2
20260509221517 12 215 3.2 14.5 0.00 0.43 0.43 80 1001.7
20260509220012 12 168 3.2 14.5 0.03 0.43 0.43 80 1001.5
20260509214517 13 204 3.2 14.5 0.15 0.43 0.43 84 1001.7
20260509213020 12 179 4.8 19.3 0.38 0.43 0.43 86 1001.6
20260509211520 11 262 3.2 12.9 0.43 0.43 0.43 89 1001.7
20260509210020 11 185 1.6 16.1 0.41 0.41 0.41 90 1001.9
20260509204514 11 238 6.4 19.3 0.28 0.28 0.28 87 1002.6
20260509203030 12 131 4.8 22.5 0.05 0.05 0.05 82 1002.0
20260509201522 13 281 6.4 20.9 0.00 0.00 0.00 74 1001.3
20260509200021 13 143 6.4 14.5 0.00 0.00 0.00 69 1001.4
20260509194534 14 198 4.8 14.5 0.00 0.00 0.00 67 1001.4
20260509193023 14 203 8.0 16.1 0.00 0.00 0.00 65 1001.3
20260509191522 13 221 8.0 17.7 0.00 0.00 0.00 62 1002.0
20260509190024 14 189 6.4 14.5 0.00 0.00 0.00 64 1002.2
20260509184523 14 135 6.4 16.1 0.00 0.00 0.00 60 1001.8
20260509183017 13 136 6.4 17.7 0.00 0.00 0.00 63 1002.2
20260509181521 14 255 8.0 17.7 0.00 0.00 0.00 65 1002.2